OBJECT AZ, 67295

Orbit data source: Space-Track

You're viewing an Uncataloged Satellite

Recently launched and/or uncataloged satellites may have evolving metadata. Metadata may include but not limited to: Owner, Maufacturer, Bus, Motor, and Mission.

OBJECT AZ, 67295 is a satellite in SSO that was launched on Sun, 28 Dec 2025 UTC via a SOYUZ-2-1B launch vehicle from the Vostochny Cosmodrome (VOSTO). Unknown objects in Earth's orbit typically refer to objects detected orbiting the Earth but have not yet been identified or cataloged. These objects could be anything from previously untracked satellites, spent rocket stages, debris from satellite collisions, or even natural meteoroids temporarily captured by Earth's gravity.

Loading next visibility...
Identifier
67295, 2025-313AZ
Orbit
SSO
Country
Flag of TBDTBD
Related business
Manufacturer
Sputniks
Mission
Operational Amateur Imaging
Bus & Motor
CUBESAT 12U, Unknown motor
Mass
20 kg wet, 20 kg dry
Launch date (UTC)
2025-12-28 (6 months ago)
Launch vehicle
SOYUZ-2-1B
Launch site
Vostochny Cosmodrome (VOSTO)
Object type
Unknown
Shape & HBR
Box, 0.1 m
Radar Cross Section
0.055 m², Medium (>0.1 m² and < 1m²)

Expand to show TLE details & history
Last TLE update: 9 hours ago

TLE from 9 hours ago
0 OBJECT AZ
1 67295U 25313AZ  26171.47505619  .00005810  00000-0  24106-3 0  9997
2 67295  97.3933 246.3943 0009494 342.6177  17.4734 15.24204648 26473
Epoch: 2026-06-20T11:24Z
TLE epoch observation values (Epoch: 2026-06-20T11:24:04.854Z)
Latitude
-0.00005°
Longitude
166.68493°
Altitude
490.048 km
Speed
7.623 km/s
True Right ascension
16h 25m 34s
True Declination
0° 00' 00"
Sunlit
Object was in full shadow at epoch
Visualization orbit readout
Latitude
Unknown
Longitude
Unknown
Altitude
Unknown
Speed
Unknown
Apparent Right ascension
Unknown
Apparent Declination
Unknown
Sunlit
N/A
Visualization observer readout
Local Sidereal Time
07:21:29
Azimuth
Unknown
Elevation
Unknown
Doppler factor
Unknown
Orbital elements
Apogee altitude
496.655 km
Perigee altitude
483.614 km
Semi-major axis
6,868.271 km
Eccentricity
0.00095
Inclination
97.3933°
RAAN
246.3943°
Arg. of periapsis
342.6177°
True anomaly
17.5061°
Mean anomaly
17.4734°
Eccentric anomaly
17.48975°
Mean motion
3.81305 °/min
Orbital period
94.41 mins
BSTAR
0.00024106
Loading maneuver chart data...
Computing Atmospheric mass density...
Loading historical data...
Loading historical data...
Loading historical data...
Loading historical data...
Loading historical data...
Loading historical data...
Loading historical data...

Documentation

Showing up to 5 results
|